2023-001AB (55034 NORAD) Tracking and Keplerian Element Data

This shows tracking and keplerian element data for the satellite.

Feedback or suggestion? Click here.




ElementValue
Catalog55034
Name2023-001AB
Epoch Orbit170
Epoch Day13.85210077
Epoch Year2023
RAAN75.7997
Inclination97.5035
Eccentricity0.0012677
Argument of Perigee175.5954
Mean Anonmoly184.5391
Mean Motion15.12480079
Decay Rate6.225E-05
L11 55034U 23001AB 23013.85210077 .00006225 00000+0 36075-3 0 9990
L22 55034 97.5035 75.7997 0012677 175.5954 184.5391 15.12480079 1707



Live tracking and technical data element details for 2023-001AB (NORAD 55034). 2023-001AB can be tracked NOW for your location showing map with azimuth and elevation plus other details from your city location.







IsCatalogInMostPopularTable: catalog: 55034, numindb: 4
Update: records affected: 1



GetName: 55034 2023-001AB

Hit Count: updated at: Tue, 07 Feb 2023 15:46:09 GMT